When you browse on this site, cookies collect data to enhance your experience and personalize the content and advertising you see.
Visit our Privacy Policy to learn more. By continuing to use the site, you agree to this use of cookies and data.
  • In Slovakia
  • List of Countries
  • For 7 days
  • Water Temperature
  • Weather Map
  • Weather Widgets
  • user-avatar
    Login

    Hourly Weather Ondjiwa

    Today, 14 November, Thursday

    Time Temperature Precipitation Wind Pressure Humidity
    00:00 +26°C° 0.1 mm 2 mps 666 mmHg 61%
    01:00 +25°C° 0 mm 2 mps 666 mmHg 70%
    02:00 +24°C° 0.3 mm 2 mps 666 mmHg 71%
    03:00 +24°C° 0.3 mm 2 mps 665 mmHg 73%
    04:00 +24°C° 0.3 mm 2 mps 665 mmHg 74%
    05:00 +24°C° 0 mm 2 mps 666 mmHg 71%
    06:00 +25°C° 0 mm 3 mps 666 mmHg 69%
    07:00 +25°C° 0 mm 3 mps 667 mmHg 64%
    08:00 +28°C° 0 mm 2 mps 668 mmHg 53%
    09:00 +30°C° 0 mm 2 mps 668 mmHg 43%
    10:00 +32°C° 0 mm 1 mps 668 mmHg 33%
    11:00 +34°C° 0 mm 1 mps 668 mmHg 30%
    12:00 +35°C° 0 mm 1 mps 668 mmHg 28%
    13:00 +36°C° 0 mm 1 mps 667 mmHg 21%
    14:00 +36°C° 0 mm 1 mps 666 mmHg 23%
    15:00 +36°C° 0 mm 2 mps 665 mmHg 25%
    16:00 +35°C° 0 mm 2 mps 665 mmHg 27%
    17:00 +34°C° 0 mm 2 mps 665 mmHg 30%
    18:00 +32°C° 0 mm 2 mps 666 mmHg 33%
    19:00 +31°C° 0 mm 2 mps 666 mmHg 37%
    20:00 +29°C° 0 mm 4 mps 666 mmHg 45%
    21:00 +28°C° 0 mm 5 mps 666 mmHg 54%
    22:00 +26°C° 0 mm 6 mps 666 mmHg 63%
    23:00 +26°C° 0 mm 5 mps 666 mmHg 63%

    Tomorrow, 15 November, Friday

    Time Temperature Precipitation Wind Pressure Humidity
    00:00 +26°C° 0 mm 4 mps 666 mmHg 64%
    01:00 +25°C° 0 mm 3 mps 666 mmHg 64%
    02:00 +25°C° 0 mm 3 mps 666 mmHg 63%
    03:00 +25°C° 0 mm 3 mps 665 mmHg 62%
    04:00 +25°C° 0 mm 2 mps 665 mmHg 61%
    05:00 +25°C° 0 mm 2 mps 666 mmHg 59%
    06:00 +26°C° 0 mm 2 mps 666 mmHg 57%
    07:00 +26°C° 0 mm 3 mps 667 mmHg 55%
    08:00 +28°C° 0 mm 2 mps 667 mmHg 45%
    09:00 +30°C° 0 mm 2 mps 667 mmHg 35%
    10:00 +32°C° 0 mm 2 mps 668 mmHg 24%
    11:00 +34°C° 0 mm 2 mps 667 mmHg 22%
    12:00 +35°C° 0 mm 2 mps 667 mmHg 20%
    13:00 +36°C° 0 mm 2 mps 666 mmHg 19%
    14:00 +36°C° 0 mm 2 mps 666 mmHg 18%
    15:00 +36°C° 0 mm 2 mps 665 mmHg 17%
    16:00 +36°C° 0 mm 2 mps 664 mmHg 17%
    17:00 +34°C° 0 mm 2 mps 664 mmHg 19%
    18:00 +32°C° 0 mm 2 mps 664 mmHg 22%
    19:00 +30°C° 0 mm 2 mps 664 mmHg 25%
    20:00 +29°C° 0 mm 3 mps 665 mmHg 32%
    21:00 +29°C° 0 mm 4 mps 665 mmHg 39%
    22:00 +28°C° 0 mm 4 mps 666 mmHg 47%
    23:00 +28°C° 0 mm 4 mps 666 mmHg 46%

    Day after tomorrow, 16 November, Saturday

    Time Temperature Precipitation Wind Pressure Humidity
    00:00 +27°C° 0 mm 3 mps 666 mmHg 46%
    01:00 +27°C° 0 mm 2 mps 666 mmHg 46%
    02:00 +26°C° 0 mm 2 mps 665 mmHg 44%
    03:00 +25°C° 0 mm 2 mps 665 mmHg 42%
    04:00 +25°C° 0 mm 2 mps 665 mmHg 41%
    05:00 +25°C° 0 mm 2 mps 665 mmHg 38%
    06:00 +26°C° 0 mm 2 mps 666 mmHg 36%
    07:00 +26°C° 0 mm 2 mps 666 mmHg 34%
    08:00 +28°C° 0 mm 2 mps 667 mmHg 28%
    09:00 +30°C° 0 mm 2 mps 667 mmHg 21%
    10:00 +32°C° 0 mm 2 mps 667 mmHg 15%
    11:00 +34°C° 0 mm 2 mps 667 mmHg 14%
    12:00 +36°C° 0 mm 2 mps 666 mmHg 12%
    13:00 +37°C° 0 mm 3 mps 666 mmHg 10%
    14:00 +37°C° 0 mm 3 mps 665 mmHg 10%
    15:00 +37°C° 0 mm 3 mps 664 mmHg 10%
    16:00 +37°C° 0 mm 3 mps 664 mmHg 10%
    17:00 +35°C° 0 mm 2 mps 663 mmHg 11%
    18:00 +32°C° 0 mm 2 mps 663 mmHg 13%
    19:00 +31°C° 0 mm 1 mps 663 mmHg 15%
    20:00 +30°C° 0 mm 2 mps 663 mmHg 16%
    21:00 +30°C° 0 mm 2 mps 664 mmHg 17%
    22:00 +29°C° 0 mm 3 mps 664 mmHg 19%
    23:00 +28°C° 0 mm 2 mps 664 mmHg 21%

    17 November, Sunday

    Time Temperature Precipitation Wind Pressure Humidity
    00:00 +27°C° 0 mm 2 mps 664 mmHg 23%
    01:00 +26°C° 0 mm 2 mps 664 mmHg 24%
    02:00 +25°C° 0 mm 2 mps 664 mmHg 25%
    03:00 +25°C° 0 mm 2 mps 663 mmHg 26%
    04:00 +24°C° 0 mm 2 mps 663 mmHg 27%
    05:00 +25°C° 0 mm 2 mps 664 mmHg 25%
    06:00 +25°C° 0 mm 2 mps 665 mmHg 24%
    07:00 +26°C° 0 mm 2 mps 665 mmHg 22%
    08:00 +29°C° 0 mm 2 mps 665 mmHg 19%
    09:00 +31°C° 0 mm 3 mps 666 mmHg 15%
    10:00 +34°C° 0 mm 3 mps 666 mmHg 12%
    11:00 +35°C° 0 mm 3 mps 666 mmHg 12%
    12:00 +36°C° 0 mm 3 mps 665 mmHg 11%
    13:00 +37°C° 0 mm 3 mps 665 mmHg 11%
    14:00 +37°C° 0 mm 3 mps 664 mmHg 11%
    15:00 +37°C° 0 mm 3 mps 664 mmHg 11%
    16:00 +37°C° 0 mm 3 mps 663 mmHg 11%
    17:00 +36°C° 0 mm 3 mps 663 mmHg 13%
    18:00 +34°C° 0 mm 2 mps 663 mmHg 15%
    19:00 +31°C° 0 mm 1 mps 663 mmHg 16%
    20:00 +30°C° 0 mm 3 mps 664 mmHg 18%
    21:00 +29°C° 0 mm 4 mps 664 mmHg 20%
    22:00 +29°C° 0 mm 6 mps 664 mmHg 22%
    23:00 +27°C° 0 mm 5 mps 664 mmHg 23%

    18 November, Monday

    Time Temperature Precipitation Wind Pressure Humidity
    00:00 +26°C° 0 mm 4 mps 664 mmHg 25%
    01:00 +25°C° 0 mm 3 mps 664 mmHg 26%
    02:00 +24°C° 0 mm 3 mps 664 mmHg 27%
    03:00 +22°C° 0 mm 3 mps 664 mmHg 29%
    04:00 +22°C° 0 mm 3 mps 664 mmHg 31%
    05:00 +22°C° 0 mm 3 mps 664 mmHg 32%
    06:00 +24°C° 0 mm 3 mps 665 mmHg 32%
    07:00 +25°C° 0 mm 3 mps 666 mmHg 33%
    08:00 +27°C° 0 mm 3 mps 666 mmHg 27%
    09:00 +29°C° 0 mm 3 mps 667 mmHg 20%
    10:00 +33°C° 0 mm 3 mps 667 mmHg 13%
    11:00 +34°C° 0 mm 3 mps 667 mmHg 13%
    12:00 +35°C° 0 mm 3 mps 666 mmHg 12%
    13:00 +36°C° 0 mm 3 mps 666 mmHg 12%
    14:00 +36°C° 0 mm 3 mps 665 mmHg 12%
    15:00 +36°C° 0 mm 3 mps 665 mmHg 12%
    16:00 +36°C° 0 mm 3 mps 664 mmHg 12%
    17:00 +35°C° 0 mm 2 mps 664 mmHg 14%
    18:00 +32°C° 0 mm 2 mps 664 mmHg 16%
    19:00 +30°C° 0 mm 1 mps 664 mmHg 18%
    20:00 +29°C° 0 mm 2 mps 664 mmHg 20%
    21:00 +28°C° 0 mm 3 mps 665 mmHg 22%
    22:00 +28°C° 0 mm 3 mps 665 mmHg 23%
    23:00 +27°C° 0 mm 3 mps 665 mmHg 24%

    19 November, Tuesday

    Time Temperature Precipitation Wind Pressure Humidity
    00:00 +26°C° 0 mm 3 mps 665 mmHg 25%
    01:00 +25°C° 0 mm 3 mps 665 mmHg 25%
    02:00 +24°C° 0 mm 3 mps 665 mmHg 27%
    03:00 +22°C° 0 mm 3 mps 664 mmHg 28%
    04:00 +22°C° 0 mm 3 mps 664 mmHg 30%
    05:00 +22°C° 0 mm 3 mps 665 mmHg 27%
    06:00 +24°C° 0 mm 3 mps 665 mmHg 25%
    07:00 +25°C° 0 mm 2 mps 666 mmHg 22%
    08:00 +27°C° 0 mm 3 mps 666 mmHg 18%
    09:00 +29°C° 0 mm 3 mps 667 mmHg 15%
    10:00 +33°C° 0 mm 3 mps 667 mmHg 11%
    11:00 +34°C° 0 mm 3 mps 667 mmHg 11%
    12:00 +35°C° 0 mm 3 mps 666 mmHg 11%
    13:00 +36°C° 0 mm 2 mps 666 mmHg 11%
    14:00 +36°C° 0 mm 2 mps 665 mmHg 12%
    15:00 +36°C° 0 mm 2 mps 665 mmHg 12%
    16:00 +36°C° 0 mm 2 mps 664 mmHg 13%
    17:00 +35°C° 0 mm 2 mps 664 mmHg 15%
    18:00 +32°C° 0 mm 1 mps 664 mmHg 17%
    19:00 +30°C° 0 mm 1 mps 664 mmHg 18%
    20:00 +29°C° 0 mm 2 mps 664 mmHg 18%
    21:00 +28°C° 0 mm 3 mps 665 mmHg 19%
    22:00 +27°C° 0 mm 4 mps 665 mmHg 19%
    23:00 +26°C° 0 mm 4 mps 665 mmHg 19%
    Show more